Weather History for Lexington, KY

Change the Weather History Date:

Monday, November 12, 2012

  Actual Average Record
Temperature  
Mean Temperature 47 °F 48 °F  
Max Temperature 63 °F 57 °F 75 °F (1945)
Min Temperature 31 °F 39 °F 14 °F (1911)
Degree Days  
Heating Degree Days 18 17  
Month to date heating degree days 236 182  
Since 1 July heating degree days 638 508  
Cooling Degree Days 0 0  
Month to date cooling degree days 0 0  
Year to date cooling degree days 1359 1188  
Moisture  
Dew Point 44 °F    
Average Humidity 78    
Maximum Humidity 96    
Minimum Humidity 60    
Precipitation  
Precipitation 0.83 in 0.11 in 2.06 in (2003)
Month to date precipitation 1.43 1.31  
Year to date precipitation 35.74 39.02  
Snow  
Snow 0.00 in 0.00 in 0.40 in (2013)
Month to date snowfall 0.0 0.0  
Since 1 July snowfall 0.0 0.0  
Since 1 September snowfall 0.0 0.0  
Snow Depth 0.00 in    
Sea Level Pressure  
Sea Level Pressure 30.20 in    
Wind  
Wind Speed 12 mph (WSW)    
Max Wind Speed 26 mph    
Max Gust Speed 35 mph    
Visibility 8 miles    
Events Rain    
T = Trace of Precipitation, MM = Missing Value Source: NWS Daily Summary

Daily Weather History Graph

Daily Weather History Graph

Search for Another Location

Airport:

Trip Planner

Search our weather history database for the weather conditions in past years. The results will help you decide how hot, cold, wet, or windy it might be!

Date:

Astronomy

Nov. 12, 2012 Rise Set
Actual Time 7:16 AM EST 5:28 PM EST
Civil Twilight 6:48 AM EST 5:56 PM EST
Nautical Twilight 6:16 AM EST 6:28 PM EST
Astronomical Twilight 5:45 AM EST 6:59 PM EST
Moon 5:41 AM EST (11/12) 4:32 PM EST (11/12)
Length of Visible Light 11h 07m
Length of Day
10h 11m
Waning Crescent, 2% of the Moon is Illuminated
Nov 12
Waning Crescent
Nov 13
New
Nov 20
First Quarter
Nov 28
Full
Dec 6
Last Quarter

Hourly Weather History & Observations

Time (EST) Temp. Windchill Dew Point Humidity Pressure Visibility Wind Dir Wind Speed Gust Speed Precip Events Conditions
1:54 AM 59.0 °F - 48.0 °F 67% 30.13 in 10.0 mi South 9.2 mph - N/A   Mostly Cloudy
2:54 AM 61.0 °F - 48.9 °F 64% 30.11 in 10.0 mi South 16.1 mph 24.2 mph N/A   Mostly Cloudy
3:54 AM 63.0 °F - 50.0 °F 63% 30.06 in 10.0 mi South 21.9 mph 27.6 mph N/A   Clear
4:54 AM 62.1 °F - 52.0 °F 70% 30.04 in 10.0 mi South 19.6 mph 34.5 mph 0.00 in Rain Light Rain
5:54 AM 60.1 °F - 54.0 °F 80% 30.06 in 10.0 mi South 16.1 mph 24.2 mph 0.02 in Rain Light Rain
6:54 AM 59.0 °F - 54.0 °F 83% 30.06 in 10.0 mi South 23.0 mph 29.9 mph 0.04 in Rain Light Rain
7:54 AM 57.9 °F - 55.0 °F 90% 30.07 in 10.0 mi South 19.6 mph 29.9 mph 0.09 in Rain Light Rain
8:54 AM 57.9 °F - 55.0 °F 90% 30.07 in 9.0 mi South 21.9 mph 31.1 mph 0.01 in Rain Light Rain
9:54 AM 57.9 °F - 55.9 °F 93% 30.08 in 3.0 mi SSW 16.1 mph 26.5 mph 0.04 in Rain Rain
9:59 AM 57.2 °F - 55.4 °F 94% 30.10 in 2.5 mi SW 13.8 mph 26.5 mph 0.02 in Rain Heavy Rain
10:04 AM 57.2 °F - 55.4 °F 94% 30.12 in 1.5 mi West 17.3 mph 28.8 mph 0.04 in Rain Heavy Rain
10:12 AM 51.8 °F - 50.0 °F 94% 30.12 in 0.8 mi West 17.3 mph 28.8 mph 0.18 in Rain Heavy Rain
10:21 AM 51.8 °F - 50.0 °F 94% 30.12 in 2.0 mi West 11.5 mph 20.7 mph 0.23 in Rain Rain
10:31 AM 51.8 °F - 50.0 °F 94% 30.13 in 3.0 mi West 13.8 mph - 0.25 in Rain Rain
10:40 AM 51.8 °F - 50.0 °F 94% 30.13 in 4.0 mi West 12.7 mph - 0.26 in Rain Light Rain
10:49 AM 51.8 °F - 51.8 °F 100% 30.14 in 3.0 mi West 12.7 mph - 0.27 in Rain Rain
10:54 AM 51.1 °F - 50.0 °F 96% 30.14 in 2.5 mi West 11.5 mph 20.7 mph 0.29 in Rain Rain
11:24 AM 51.8 °F - 50.0 °F 94% 30.14 in 4.0 mi WNW 13.8 mph 19.6 mph 0.07 in Rain Light Rain
11:54 AM 51.1 °F - 50.0 °F 96% 30.14 in 5.0 mi West 15.0 mph 20.7 mph 0.11 in Rain Light Rain
12:01 PM 51.8 °F - 50.0 °F 94% 30.14 in 8.0 mi WNW 12.7 mph - 0.00 in Rain Light Rain
12:05 PM 48.2 °F - 48.2 °F 100% 30.14 in 7.0 mi NW 18.4 mph 23.0 mph 0.01 in Rain Rain
12:54 PM 44.1 °F 37.1 °F 43.0 °F 96% 30.17 in 7.0 mi WNW 15.0 mph 25.3 mph 0.07 in Rain Rain
1:54 PM 42.1 °F 36.1 °F 41.0 °F 96% 30.20 in 4.0 mi NW 10.4 mph - 0.11 in Rain Rain
2:54 PM 39.9 °F 33.9 °F 39.0 °F 97% 30.25 in 10.0 mi West 9.2 mph - 0.05 in   Overcast
3:26 PM 39.2 °F 32.5 °F 37.4 °F 93% 30.25 in 10.0 mi WNW 10.4 mph - N/A   Overcast
3:34 PM 39.2 °F 33.0 °F 37.4 °F 93% 30.26 in 10.0 mi WNW 9.2 mph - N/A   Overcast
3:54 PM 39.9 °F 31.8 °F 36.0 °F 86% 30.28 in 10.0 mi West 15.0 mph 19.6 mph N/A   Overcast
4:54 PM 39.0 °F 33.4 °F 33.1 °F 79% 30.31 in 10.0 mi West 8.1 mph - N/A   Mostly Cloudy
5:05 PM 39.2 °F 32.5 °F 33.8 °F 81% 30.31 in 10.0 mi West 10.4 mph - N/A   Mostly Cloudy
5:33 PM 37.4 °F 32.8 °F 32.0 °F 81% 30.31 in 10.0 mi SW 5.8 mph - N/A   Scattered Clouds
5:54 PM 36.0 °F 31.1 °F 32.0 °F 86% 30.32 in 10.0 mi SW 5.8 mph - N/A   Clear
6:54 PM 34.0 °F 28.8 °F 32.0 °F 92% 30.34 in 10.0 mi South 5.8 mph - N/A   Clear
7:54 PM 34.0 °F 28.8 °F 30.9 °F 89% 30.37 in 10.0 mi SW 5.8 mph - N/A   Clear
8:54 PM 32.0 °F 26.4 °F 28.9 °F 88% 30.40 in 10.0 mi West 5.8 mph - N/A   Clear
9:54 PM 30.9 °F 25.2 °F 28.0 °F 89% 30.41 in 10.0 mi West 5.8 mph - N/A   Clear
10:54 PM 30.9 °F 26.2 °F 27.0 °F 85% 30.44 in 10.0 mi West 4.6 mph - N/A   Clear
11:54 PM 30.9 °F 27.5 °F 25.0 °F 79% 30.45 in 10.0 mi WSW 3.5 mph - N/A   Clear